This is the latest recevied weather packets stored in our database for station/object LRBM. If no packets are shown the sender has not sent any weather packets the latest 10 day(s).
| Time | Temp. | Humidity | Pressure | Rain* | Wind** | Luminosity | Snow |
|---|---|---|---|---|---|---|---|
| 1777529015 | 10° C | 35% | 1025 hPa | - | - | - | - |
| 1777528116 | 8.89° C | 37% | 1025 hPa | - | - | - | - |
| 1777527216 | 8.89° C | 37% | 1025 hPa | - | - | - | - |
| 1777526315 | 8.89° C | 40% | 1025 hPa | - | - | - | - |
| 1777525415 | 8.89° C | 40% | 1025 hPa | - | - | - | - |
| 1777524515 | 7.78° C | 40% | 1025 hPa | - | - | - | - |
| 1777523615 | 7.78° C | 40% | 1025 hPa | - | - | - | - |
| 1777522715 | 7.22° C | 61% | 1025 hPa | - | - | - | - |
| 1777521815 | 7.22° C | 61% | 1025 hPa | - | - | - | - |
| 1777520916 | 6.11° C | 49% | 1024 hPa | - | - | - | - |
| 1777520015 | 6.11° C | 49% | 1024 hPa | - | - | - | - |
| 1777519117 | 3.89° C | 65% | 1024 hPa | - | - | - | - |
| 1777518215 | 3.89° C | 65% | 1024 hPa | - | - | - | - |
| 1777517316 | 2.78° C | 70% | 1024 hPa | - | - | - | - |
| 1777516416 | 2.78° C | 70% | 1024 hPa | - | - | - | - |
| 1777515515 | 2.78° C | 70% | 1024 hPa | - | - | - | - |
| 1777514615 | 2.78° C | 70% | 1024 hPa | - | - | - | - |
| 1777513715 | 3.89° C | 65% | 1024 hPa | - | - | - | - |
| 1777512815 | 3.89° C | 65% | 1024 hPa | - | - | - | - |
| 1777511915 | 5° C | 61% | 1024 hPa | - | - | - | - |
| 1777510116 | 3.89° C | 70% | 1024 hPa | - | - | - | - |
| 1777508315 | 3.89° C | 70% | 1024 hPa | - | - | - | - |
| 1777502015 | 3.89° C | 65% | 1023 hPa | - | - | - | - |
| 1777501115 | 3.89° C | 61% | 1023 hPa | - | - | - | - |
| 1777500216 | 3.89° C | 61% | 1023 hPa | - | - | - | - |
* Rain since midnight (hover to see other rain measurements)
** Current wind speed in m/s (hover to see current wind gust speed)